Regional Weather Roundup
Issued by NWS

Home | Current Version | Previous Version | Text Only | Print | Product List | Glossary Off
Versions: 1 2 3 4 5 6 7 8 9 10 11 12 13 14 15 16 17 18 19 20 21 22 23 24 25 26 27 28 29 30 31 32 33 34 35 36 37 38 39 40 41 42 43 44 45 46 47 48 49 50

000
ASUS45 KBOI 291810
RWRID

IDAHO REGIONAL WEATHER ROUNDUP
NATIONAL WEATHER SERVICE BOISE ID
1200 PM MDT SUN MAY 29 2016

NOTE: "FAIR" INDICATES FEW OR NO CLOUDS BELOW 12000 FEET
WITH NO SIGNIFICANT WEATHER AND/OR OBSTRUCTIONS TO VISIBILITY

IDZ012-014-291900-
SOUTHWEST IDAHO


CITY           SKY/WX    TMP DP  RH WIND       PRES   REMARKS
BOISE          SUNNY     76  27  16 S9G20     30.00F
CALDWELL       SUNNY     72  37  28 S7        30.00F
MOUNTAIN HOME  SUNNY     75  40  28 E13       30.02F
$$

IDZ016-017-291900-
SOUTHCENTRAL IDAHO


CITY           SKY/WX    TMP DP  RH WIND       PRES   REMARKS
BURLEY         SUNNY     69  41  36 NE5       30.07F
JEROME         SUNNY     70  37  29 E10       30.08F
TWIN FALLS     SUNNY     68  39  34 NE7       30.07F
$$

IDZ019>023-291900-
SOUTHEAST IDAHO


CITY           SKY/WX    TMP DP  RH WIND       PRES   REMARKS
IDAHO FALLS    SUNNY     65  38  36 SW6       30.12F
POCATELLO      MOSUNNY   69  39  33 CALM      30.11F
REXBURG        SUNNY     65  38  36 W7        30.12F
$$

IDZ006-010-011-018-031-032-291900-
CENTRAL IDAHO MOUNTAINS


CITY           SKY/WX    TMP DP  RH WIND       PRES   REMARKS
MCCALL         MOSUNNY   62  32  32 S14       30.06F
HAILEY         MOSUNNY   63  39  42 SE12      30.13F
STANLEY          N/A     62  24  23 N6        30.14F
SALMON         SUNNY     61  37  41 CALM      30.05F
CHALLIS        SUNNY     63  31  30 VRB5      30.08F
$$

IDZ002-004-006-007-026-291900-
NORTHERN IDAHO


CITY           SKY/WX    TMP DP  RH WIND       PRES   REMARKS
LEWISTON       PTSUNNY   64  46  52 CALM      30.01F
LOWELL           N/A     64  42  44 N3        29.98F
COEUR D`ALENE  PTSUNNY   66  45  45 SW14G20   29.97S
MULLAN PASS    CLOUDY    50  36  58 VRB6      30.06F
$$



USA.gov is the U.S. government's official web portal to all federal, state and local government web resources and services.